Wind_Speed
70 65 61 59 57 56 55 56 57 54 52 54 54 55 48 46 51 49 46 45 46 46 46 48 47 43 40 37 39 35 35 36 36 34 33 34 34 33 34 35 35 35 37 39
66 70 67 61 61 61 60 60 60 59 56 58 58 59 56 52 53 52 51 50 48 49 50 51 51 48 45 44 40 40 40 41 41 39 39 40 40 39 38 38 39 40 43 45
63 59 69 66 64 64 63 62 61 61 60 60 63 65 62 58 57 57 56 52 50 48 49 54 56 53 49 47 46 44 45 45 46 45 46 46 45 45 43 42 42 44 47 49
53 65 65 72 72 69 68 64 64 65 66 66 65 72 64 62 59 59 58 55 52 52 53 54 55 57 52 51 52 51 51 51 51 51 52 51 51 50 50 49 49 49 51 53
49 50 58 65 70 69 72 67 66 66 68 71 71 74 70 63 61 57 55 57 58 55 54 53 53 57 59 55 55 56 57 56 56 57 57 57 57 57 56 56 56 56 57 57
47 48 50 52 57 57 64 65 62 61 65 77 73 71 77 68 63 58 56 55 54 55 55 54 53 54 59 60 61 60 60 61 61 62 63 63 63 62 62 62 63 62 60 61
44 45 47 47 49 52 53 57 57 59 59 74 69 65 74 74 64 61 55 50 52 53 53 52 50 53 56 61 63 63 64 65 66 67 68 68 67 68 67 66 66 65 65 66
41 40 42 42 40 43 47 46 51 53 57 60 62 70 71 72 63 55 54 51 49 48 47 49 50 52 55 58 61 64 65 66 67 69 70 70 71 70 69 68 69 69 70 71
43 42 39 40 42 43 44 51 48 49 51 57 63 69 68 66 66 55 52 52 48 46 48 51 52 53 55 56 59 61 63 65 68 69 68 69 69 69 69 70 71 72 72 73
46 45 45 45 45 46 45 44 47 52 57 61 63 62 61 56 55 55 54 51 49 48 48 47 49 52 55 57 59 60 62 64 66 67 68 68 68 68 69 71 71 72 72 72
44 45 46 46 47 44 46 48 50 51 53 56 57 57 57 53 51 51 52 52 54 52 51 54 57 58 57 58 58 61 62 64 65 66 67 66 67 68 69 70 70 69 68 68
39 43 45 44 45 47 47 49 49 51 51 51 53 52 44 47 49 52 53 55 55 53 52 54 56 59 60 61 60 62 64 65 66 68 68 67 68 70 70 69 68 68 69 69
42 48 47 48 48 47 49 49 50 47 47 52 54 50 43 48 48 50 52 54 54 55 56 54 54 54 58 61 64 67 68 69 70 71 71 71 72 69 67 68 68 69 69 69
38 47 51 51 44 44 44 42 41 42 48 51 53 53 48 50 51 52 54 53 53 55 56 58 58 56 58 61 63 63 64 66 67 67 67 67 67 67 68 68 69 67 66 65
41 46 47 48 48 47 49 47 46 51 52 52 52 53 51 49 50 50 51 53 55 55 56 57 58 59 59 59 59 61 64 66 67 67 68 69 69 67 66 65 66 66 66 66
38 44 46 47 43 43 43 42 42 45 45 46 47 49 46 46 50 56 56 57 60 60 60 62 64 65 64 65 65 65 65 65 67 68 68 69 70 70 70 69 67 67 67 67
45 44 45 46 42 48 53 50 50 49 49 49 51 49 44 49 52 56 58 62 61 61 62 61 63 65 66 66 66 67 67 69 70 71 71 71 71 71 68 66 65 65 64 63
43 38 39 40 44 51 49 43 42 47 45 42 43 40 40 44 46 51 51 53 57 60 61 63 65 65 65 65 66 66 68 68 69 69 67 63 61 60 60 59 57 57 58 59
38 38 34 38 42 41 35 31 37 37 34 34 38 40 43 46 54 57 53 59 65 67 68 68 69 69 69 68 63 62 62 61 60 59 56 53 50 49 49 49 51 53 54 55
39 43 36 31 36 37 25 36 42 42 44 39 43 47 51 52 59 59 63 65 69 71 70 68 68 66 64 63 62 63 65 65 63 62 55 49 48 48 49 51 53 54 54 55
38 26 24 26 31 34 24 30 38 46 44 40 46 49 51 57 60 62 61 62 65 70 73 73 71 66 65 64 61 60 59 58 57 59 57 52 48 46 48 50 51 54 53 50
55 46 41 40 35 40 29 31 38 41 41 40 44 52 58 61 58 52 54 54 58 69 80 80 79 78 75 70 66 60 54 50 51 53 53 52 51 51 50 49 47 46 47 50
44 49 42 41 32 29 29 36 43 45 48 51 54 56 57 54 56 55 56 58 59 63 64 77 88 87 81 74 71 69 68 58 54 58 60 55 57 58 58 57 60 55 55 56
35 36 35 38 33 39 42 46 47 52 53 51 49 49 55 58 60 60 61 59 59 55 54 62 74 77 76 74 73 70 68 67 65 66 66 66 69 60 65 64 65 59 58 64
25 27 33 33 28 37 38 44 45 47 49 52 54 56 57 60 64 64 62 61 62 62 58 57 61 66 71 74 76 74 73 72 72 72 72 73 72 69 69 65 63 65 64 65
21 28 33 33 37 42 40 44 50 53 56 57 59 59 62 64 63 63 61 59 59 60 57 55 55 59 62 65 66 67 66 66 66 66 66 68 72 72 68 69 69 66 65 64
Wind_Direction
222 225 230 231 234 236 237 237 239 238 239 243 247 248 244 247 252 255 259 262 262 264 262 256 255 256 258 254 257 255 256 257 258 259 259 259 262 266 271 275 277 282 287 292
226 226 227 230 233 235 236 238 240 242 242 245 246 250 251 247 252 256 257 259 263 265 269 268 259 259 260 259 257 258 257 257 259 259 259 260 263 265 270 276 281 286 290 293
226 227 227 231 233 235 237 240 242 246 247 248 249 248 251 251 251 255 259 262 264 269 271 269 265 259 259 261 260 257 259 258 259 260 261 264 265 268 271 274 279 284 289 292
231 231 228 229 233 237 239 241 245 247 249 250 251 253 248 253 254 256 260 266 268 267 266 267 268 263 259 260 261 261 259 260 261 262 264 266 268 271 274 276 279 282 286 289
235 234 237 233 234 236 240 243 246 249 251 250 250 255 254 252 255 259 263 264 267 269 269 267 266 262 260 258 258 260 262 263 263 264 266 268 271 273 275 277 279 279 281 287
236 232 234 234 234 236 239 241 241 245 247 248 249 253 256 256 257 258 259 262 265 267 268 267 266 261 256 257 258 258 259 262 264 266 268 269 271 274 277 278 280 282 284 286
238 241 241 240 239 238 241 242 245 246 245 248 250 250 257 260 256 258 260 260 260 262 263 265 265 262 257 256 258 259 259 260 262 264 266 268 271 273 275 277 280 282 283 284
236 240 242 241 244 242 241 246 249 254 258 257 255 253 252 258 261 261 263 264 264 263 263 263 264 263 260 258 257 258 260 261 262 264 266 268 270 272 274 276 278 280 281 282
241 244 244 241 241 241 240 244 249 251 254 256 254 252 252 255 259 265 269 269 267 263 260 259 258 260 260 259 259 259 259 260 262 264 266 267 269 270 273 275 277 279 281 283
238 238 238 241 239 240 241 242 245 247 249 253 258 260 259 262 262 267 271 271 268 264 261 264 264 263 262 261 262 262 262 262 263 264 266 267 269 271 273 276 278 281 283 285
242 243 240 237 245 247 249 248 249 251 253 259 264 261 261 265 268 270 270 270 268 267 266 265 264 264 264 264 264 264 265 266 266 266 267 269 272 273 276 279 281 282 282 281
242 246 246 244 243 243 244 245 248 250 253 256 261 256 264 268 267 267 267 267 268 269 267 265 264 265 266 266 266 267 268 268 269 269 271 273 274 277 280 279 279 279 278 278
235 241 244 243 242 243 245 247 251 253 257 259 263 262 263 264 267 268 271 272 273 273 272 269 267 266 267 267 268 268 268 267 269 271 274 275 277 278 278 277 277 276 276 276
231 235 240 247 249 248 245 247 251 256 258 260 261 264 260 266 267 269 269 271 273 273 272 273 274 271 269 269 268 269 271 272 273 273 273 273 274 273 273 272 272 273 274 274
228 236 243 243 247 252 255 256 254 254 259 257 262 262 265 267 273 268 268 271 272 271 273 273 271 270 268 268 270 271 270 271 272 272 272 272 272 273 274 275 276 276 276 276
234 243 248 249 248 247 251 257 257 256 257 260 263 264 265 265 266 270 271 269 269 270 272 272 274 276 276 275 273 270 270 270 271 271 272 273 275 276 276 277 276 276 276 278
243 238 244 249 251 252 255 256 261 262 261 267 268 272 268 264 265 267 270 273 273 273 272 273 273 272 273 273 273 273 272 272 272 272 272 273 274 275 276 278 279 279 279 279
223 232 238 252 244 251 258 255 259 263 265 266 270 270 266 267 267 265 269 276 276 276 276 274 274 274 274 273 274 275 275 275 275 274 275 277 278 278 278 277 278 279 278 276
219 228 235 253 248 255 252 255 261 271 263 266 279 279 268 271 274 268 281 279 281 283 284 284 281 277 273 272 273 274 275 275 275 277 277 275 274 276 275 276 276 274 273 273
220 228 237 249 258 259 271 269 270 272 272 283 271 269 273 276 278 284 284 285 283 282 281 279 275 275 276 276 274 274 274 275 277 278 274 269 266 268 272 274 274 274 275 276
222 230 244 260 265 270 276 268 270 270 279 270 272 275 278 281 281 281 279 278 281 283 279 275 269 269 272 271 273 275 273 275 277 279 274 265 261 266 269 271 275 274 274 277
239 244 262 275 272 277 277 265 264 266 268 269 273 275 276 280 279 278 283 285 287 281 272 267 265 265 269 271 273 270 268 270 272 272 270 269 266 262 261 265 267 270 274 275
252 257 266 260 268 279 280 275 270 269 270 273 274 277 278 278 280 281 286 285 287 290 287 271 270 269 269 269 265 264 265 265 265 270 257 260 262 266 263 266 266 267 270 272
251 256 258 264 273 265 264 267 270 272 277 281 285 287 284 284 284 285 286 288 291 291 290 282 275 273 270 266 261 259 260 263 261 256 260 263 268 267 270 270 274 274 276 279
253 264 265 273 282 270 271 275 280 284 286 287 287 287 286 285 285 287 288 289 292 295 292 284 280 276 273 269 267 268 266 266 268 266 265 264 264 264 267 268 268 270 275 274
280 275 279 284 282 284 282 279 281 284 286 285 285 285 285 285 286 289 290 291 289 290 291 291 287 281 275 271 268 268 267 267 266 266 266 264 262 262 263 264 266 266 269 273
Height
5738 5745 5756 5765 5770 5775 5778 5781 5784 5789 5793 5794 5796 5798 5808 5812 5808 5813 5819 5821 5821 5821 5822 5821 5822 5826 5828 5830 5830 5832 5832 5831 5831 5832 5832 5831 5830 5829 5828 5827 5825 5824 5822 5820
5725 5737 5747 5751 5757 5762 5768 5772 5776 5779 5783 5784 5788 5790 5796 5805 5805 5806 5809 5812 5815 5814 5815 5815 5816 5818 5819 5820 5823 5824 5823 5822 5822 5822 5822 5821 5821 5821 5820 5818 5816 5813 5811 5809
5716 5727 5734 5741 5747 5752 5758 5763 5768 5770 5771 5775 5775 5778 5784 5794 5797 5799 5801 5805 5808 5810 5809 5806 5805 5809 5811 5812 5812 5814 5813 5813 5812 5812 5812 5811 5811 5810 5810 5809 5807 5805 5803 5800
5707 5715 5721 5729 5737 5742 5746 5753 5755 5757 5758 5763 5767 5760 5778 5783 5790 5793 5793 5797 5799 5798 5798 5797 5797 5798 5802 5801 5801 5802 5803 5803 5802 5802 5801 5801 5800 5799 5798 5797 5796 5794 5792 5790
5704 5709 5714 5721 5729 5731 5738 5742 5743 5744 5745 5748 5756 5754 5762 5776 5780 5786 5786 5784 5784 5785 5787 5788 5787 5787 5789 5791 5791 5790 5790 5790 5790 5790 5789 5788 5788 5787 5786 5784 5783 5782 5780 5777
5693 5699 5704 5711 5717 5721 5723 5727 5729 5728 5731 5733 5743 5748 5748 5762 5770 5774 5775 5774 5773 5773 5773 5774 5774 5775 5776 5777 5777 5777 5778 5778 5778 5777 5776 5775 5774 5774 5773 5771 5770 5768 5766 5764
5687 5691 5697 5702 5707 5711 5712 5716 5717 5717 5718 5725 5732 5736 5746 5742 5756 5758 5760 5761 5760 5761 5761 5761 5761 5762 5762 5763 5763 5763 5764 5764 5764 5763 5762 5761 5761 5760 5759 5758 5756 5754 5751 5749
5677 5683 5687 5694 5699 5704 5706 5708 5710 5710 5711 5716 5717 5723 5736 5733 5738 5745 5744 5746 5748 5748 5749 5750 5749 5749 5749 5749 5749 5748 5749 5749 5748 5748 5748 5748 5747 5745 5744 5743 5741 5738 5735 5733
5669 5675 5679 5684 5688 5691 5694 5692 5704 5701 5700 5699 5702 5711 5720 5726 5726 5730 5732 5734 5733 5735 5736 5737 5736 5735 5735 5734 5734 5735 5734 5733 5733 5732 5732 5732 5731 5730 5729 5727 5724 5722 5719 5716
5659 5664 5669 5672 5675 5677 5682 5689 5686 5685 5686 5686 5692 5698 5709 5716 5718 5716 5718 5718 5720 5722 5724 5724 5723 5722 5720 5720 5720 5721 5720 5719 5719 5719 5717 5716 5715 5714 5713 5711 5708 5705 5703 5700
5650 5654 5660 5663 5666 5673 5674 5675 5677 5677 5678 5679 5684 5691 5697 5702 5705 5707 5704 5703 5705 5707 5708 5708 5706 5707 5708 5707 5705 5705 5705 5705 5704 5703 5701 5702 5701 5699 5697 5695 5693 5690 5687 5684
5641 5642 5647 5655 5658 5661 5661 5664 5666 5665 5669 5669 5670 5676 5692 5691 5691 5690 5691 5690 5688 5690 5692 5690 5689 5691 5692 5692 5691 5691 5690 5688 5688 5687 5687 5686 5683 5682 5680 5678 5675 5672 5670 5667
5631 5632 5637 5641 5646 5649 5651 5656 5657 5657 5657 5658 5662 5673 5685 5677 5677 5677 5676 5674 5675 5674 5673 5673 5676 5678 5676 5675 5674 5673 5673 5672 5671 5670 5669 5668 5667 5665 5662 5660 5658 5656 5653 5650
5621 5622 5627 5633 5637 5639 5642 5645 5648 5648 5645 5652 5649 5661 5669 5667 5667 5667 5661 5662 5662 5659 5657 5657 5660 5661 5660 5659 5657 5657 5656 5654 5652 5651 5650 5649 5647 5646 5644 5642 5640 5638 5634 5632
5612 5615 5621 5625 5626 5628 5630 5632 5635 5634 5640 5634 5645 5643 5658 5659 5656 5650 5650 5650 5645 5642 5644 5645 5641 5638 5640 5641 5642 5640 5638 5635 5635 5634 5631 5629 5628 5627 5626 5625 5623 5621 5619 5616
5603 5607 5612 5614 5618 5618 5617 5621 5627 5626 5627 5627 5632 5630 5646 5645 5639 5637 5638 5633 5627 5629 5632 5627 5624 5625 5626 5625 5624 5623 5622 5620 5617 5616 5615 5612 5610 5609 5609 5608 5606 5605 5602 5599
5595 5597 5603 5604 5609 5608 5605 5616 5617 5619 5620 5621 5615 5625 5628 5628 5630 5626 5618 5612 5616 5616 5611 5611 5610 5608 5607 5606 5605 5603 5601 5599 5598 5597 5595 5593 5591 5590 5589 5589 5588 5586 5584 5582
5588 5590 5593 5595 5597 5591 5604 5606 5606 5604 5607 5609 5607 5610 5614 5614 5612 5610 5604 5605 5602 5596 5594 5593 5592 5592 5591 5588 5585 5582 5580 5579 5577 5576 5576 5575 5574 5572 5570 5569 5569 5568 5567 5566
5580 5581 5584 5586 5586 5588 5593 5600 5596 5591 5593 5596 5597 5600 5598 5599 5593 5593 5602 5590 5585 5583 5581 5579 5576 5574 5574 5572 5568 5565 5563 5561 5560 5559 5559 5557 5555 5554 5553 5552 5551 5550 5549 5548
5571 5574 5577 5577 5575 5577 5590 5586 5583 5578 5577 5596 5582 5581 5582 5583 5576 5585 5584 5580 5573 5567 5562 5559 5556 5554 5551 5551 5549 5547 5546 5544 5545 5542 5540 5540 5538 5537 5536 5535 5534 5534 5533 5532
5562 5564 5565 5568 5566 5568 5582 5576 5571 5567 5579 5575 5571 5569 5569 5566 5563 5565 5564 5563 5557 5551 5546 5542 5538 5536 5534 5531 5529 5529 5528 5529 5526 5525 5523 5521 5520 5520 5519 5519 5520 5518 5518 5516
5552 5555 5558 5559 5558 5561 5570 5568 5564 5562 5561 5564 5561 5557 5552 5551 5551 5547 5544 5542 5539 5532 5526 5521 5517 5516 5515 5513 5512 5511 5511 5510 5509 5509 5508 5506 5505 5503 5503 5503 5502 5502 5503 5502
5545 5550 5550 5551 5556 5556 5556 5554 5550 5548 5548 5547 5545 5543 5536 5536 5534 5530 5527 5522 5517 5510 5502 5494 5492 5492 5492 5491 5490 5491 5492 5491 5491 5490 5489 5487 5487 5488 5487 5487 5486 5484 5486 5486
5543 5544 5543 5541 5549 5545 5542 5539 5537 5533 5531 5530 5528 5527 5522 5519 5515 5512 5507 5501 5493 5487 5479 5473 5469 5467 5469 5469 5468 5468 5469 5470 5470 5471 5469 5467 5467 5468 5470 5469 5469 5467 5468 5468
5535 5534 5532 5533 5537 5530 5533 5528 5525 5522 5518 5515 5512 5508 5504 5499 5495 5490 5487 5480 5473 5467 5460 5454 5450 5446 5444 5444 5445 5445 5444 5445 5448 5449 5449 5449 5449 5449 5449 5451 5450 5450 5449 5448
5522 5521 5520 5522 5520 5518 5522 5518 5512 5508 5504 5500 5496 5492 5486 5481 5476 5471 5466 5459 5454 5449 5443 5437 5431 5427 5425 5423 5423 5423 5423 5423 5424 5424 5425 5426 5426 5427 5428 5430 5429 5430 5429 5428